EW9318 Weather Reports


Display with metric or nautical units.
time (UTC)temp
F
wind
direction
speed
MPH
gust
MPH
rain 1hr
in
rain 24hr
in
rain mn
in
humidity
%
barometer
mb
20260831145017 72 154 2.0 7.0 0.01 0.26 0.01 88 1014.7
20260831144517 72 163 1.0 7.0 0.01 0.26 0.01 89 1014.7
20260831144017 72 150 1.0 4.0 0.01 0.27 0.01 89 1014.7
20260831143517 71 132 1.0 6.0 0.01 0.27 0.01 89 1014.7
20260831143016 71 163 2.0 6.0 0.01 0.28 0.01 89 1014.8
20260831142538 71 218 0.0 5.0 0.01 0.28 0.01 90 1014.7
20260831142017 71 348 2.0 5.0 0.01 0.29 0.01 90 1014.7
20260831141517 70 28 1.0 4.0 0.01 0.29 0.01 90 1014.4
20260831141016 70 159 0.0 9.0 0.01 0.29 0.01 90 1014.4
20260831140518 70 144 3.0 9.0 0.00 0.29 0.00 90 1014.3
20260831140016 70 124 5.0 9.0 0.00 0.29 0.00 90 1014.1
20260831135537 70 127 4.0 8.0 0.00 0.30 0.00 90 1014.1
20260831135016 71 143 1.0 3.0 0.00 0.30 0.00 90 1014.4
20260831134517 70 139 0.0 1.0 0.00 0.31 0.00 89 1014.5
20260831134017 70 146 0.0 1.0 0.00 0.31 0.00 88 1014.4
20260831133518 70 145 0.0 5.0 0.00 0.31 0.00 88 1014.4
20260831133017 71 134 1.0 5.0 0.00 0.32 0.00 88 1014.2
20260831132517 71 116 1.0 5.0 0.00 0.32 0.00 88 1014.1
20260831132017 71 94 3.0 6.0 0.00 0.33 0.00 87 1014.2
20260831131538 71 122 3.0 6.0 0.00 0.33 0.00 86 1014.2
20260831131038 71 139 2.0 5.0 0.00 0.33 0.00 86 1014.4
20260831130518 71 179 2.0 5.0 0.00 0.34 0.00 86 1014.6
20260831130017 71 193 0.0 4.0 0.00 0.34 0.00 86 1014.7
20260831125518 71 197 1.0 4.0 0.00 0.34 0.00 86 1014.6
20260831125017 71 193 1.0 4.0 0.00 0.35 0.00 87 1014.6
20260831124517 71 164 1.0 4.0 0.00 0.35 0.00 87 1014.5
20260831124016 71 216 1.0 6.0 0.00 0.35 0.00 87 1014.5
20260831123517 71 227 1.0 6.0 0.00 0.36 0.00 88 1014.5
20260831123017 71 193 1.0 5.0 0.00 0.36 0.00 88 1014.6
20260831122518 71 155 0.0 3.0 0.00 0.36 0.00 89 1014.3
20260831122017 71 205 0.0 3.0 0.00 0.36 0.00 89 1014.3
20260831121516 71 218 0.0 6.0 0.00 0.36 0.00 89 1014.2
20260831121016 70 186 3.0 6.0 0.00 0.37 0.00 90 1014.2
20260831120518 70 188 2.0 5.0 0.00 0.37 0.00 91 1014.2
20260831120016 70 177 1.0 8.0 0.00 0.37 0.00 92 1014.2
20260831115516 69 134 3.0 8.0 0.00 0.37 0.00 92 1013.9
20260831115017 69 125 3.0 5.0 0.00 0.37 0.00 92 1013.6
20260831114517 69 131 3.0 5.0 0.00 0.37 0.00 92 1013.6
20260831114038 68 130 2.0 4.0 0.00 0.37 0.00 92 1013.7
20260831113516 68 123 2.0 4.0 0.00 0.37 0.00 92 1013.6
20260831113016 68 125 1.0 3.0 0.00 0.37 0.00 92 1013.6
20260831112517 68 138 0.0 3.0 0.00 0.37 0.00 92 1013.7
20260831112017 68 139 1.0 4.0 0.00 0.37 0.00 92 1013.6
20260831111517 68 145 2.0 4.0 0.00 0.37 0.00 92 1013.5
20260831111016 68 140 1.0 3.0 0.00 0.37 0.00 92 1013.6
20260831110516 68 138 1.0 4.0 0.00 0.37 0.00 92 1013.6
20260831110016 68 143 1.0 4.0 0.00 0.38 0.00 92 1013.7
20260831105516 68 150 0.0 2.0 0.00 0.38 0.00 92 1013.8
20260831105016 68 156 0.0 1.0 0.00 0.38 0.00 92 1013.8
20260831104517 68 151 0.0 2.0 0.00 0.38 0.00 92 1013.9
20260831104016 68 172 0.0 3.0 0.00 0.38 0.00 92 1013.8
20260831103517 68 155 0.0 3.0 0.00 0.38 0.00 92 1013.8
20260831103038 68 160 1.0 4.0 0.00 0.38 0.00 92 1013.8
20260831102516 68 184 1.0 5.0 0.00 0.38 0.00 93 1013.8
20260831102016 68 164 1.0 5.0 0.00 0.38 0.00 93 1013.7
20260831101536 68 152 1.0 5.0 0.00 0.38 0.00 93 1013.7
20260831101016 68 156 1.0 5.0 0.00 0.38 0.00 93 1013.7
20260831100516 67 139 0.0 3.0 0.00 0.38 0.00 93 1013.8
20260831100016 67 128 0.0 3.0 0.00 0.38 0.00 92 1013.8
20260831095516 67 130 1.0 3.0 0.00 0.38 0.00 92 1013.8
20260831095037 67 133 0.0 2.0 0.00 0.38 0.00 92 1013.9
20260831094516 67 144 0.0 1.0 0.00 0.38 0.00 92 1013.9
20260831094017 67 155 0.0 2.0 0.00 0.38 0.00 92 1014.0
20260831093516 67 152 0.0 2.0 0.00 0.38 0.00 92 1013.9
20260831093036 67 147 0.0 2.0 0.00 0.39 0.00 92 1014.0
20260831092516 67 151 0.0 2.0 0.00 0.39 0.00 92 1013.9
20260831092016 67 160 0.0 4.0 0.00 0.39 0.00 92 1014.1
20260831091516 67 164 0.0 4.0 0.00 0.39 0.00 92 1014.1
20260831091016 67 152 0.0 2.0 0.00 0.39 0.00 92 1014.1
20260831090516 67 135 0.0 2.0 0.00 0.39 0.00 92 1014.0
20260831090016 67 127 1.0 3.0 0.00 0.39 0.00 92 1014.0
20260831085556 67 141 1.0 3.0 0.00 0.39 0.00 92 1014.0
20260831085016 67 0.0 0.0 0.00 0.39 0.00 91 1014.0
20260831084537 67 0.0 0.0 0.00 0.39 0.00 91 1014.0
20260831084016 67 0.0 0.0 0.00 0.39 0.00 91 1014.0
20260831083516 67 0.0 0.0 0.00 0.39 0.00 91 1013.9
20260831083016 67 0.0 0.0 0.00 0.39 0.00 91 1013.9
20260831082536 68 0.0 0.0 0.00 0.39 0.00 90 1014.0
20260831082016 68 0.0 0.0 0.00 0.39 0.00 90 1013.9
20260831081536 68 0.0 0.0 0.00 0.39 0.00 90 1014.1
20260831081036 68 0.0 0.0 0.00 0.39 0.00 90 1014.1
20260831080516 68 0.0 0.0 0.00 0.39 0.00 90 1014.0
20260831080037 68 0.0 0.0 0.00 0.39 0.00 89 1014.1
20260831075516 69 0.0 0.0 0.00 0.39 0.00 89 1014.1
20260831075016 69 0.0 0.0 0.00 0.39 0.00 90 1014.2
20260831074516 69 0.0 0.0 0.00 0.39 0.00 90 1014.1
20260831074017 69 0.0 0.0 0.00 0.39 0.00 90 1014.3
20260831073536 69 0.0 2.0 0.00 0.39 0.00 90 1014.2
20260831073016 69 138 0.0 3.0 0.00 0.39 0.00 89 1014.2
20260831072517 69 148 1.0 3.0 0.00 0.39 0.00 89 1014.2
20260831072016 69 138 0.0 3.0 0.00 0.39 0.00 89 1014.2
20260831071517 69 139 0.0 2.0 0.00 0.39 0.00 89 1014.2
20260831071016 69 155 0.0 1.0 0.00 0.39 0.00 89 1014.2
20260831070536 69 0.0 3.0 0.00 0.39 0.00 89 1014.3
20260831070057 69 168 0.0 3.0 0.00 0.39 0.00 89 1014.3
20260831065515 69 194 0.0 3.0 0.00 0.39 0.00 89 1014.2
20260831065016 69 0.0 0.0 0.00 0.39 0.00 89 1014.2
20260831064516 69 0.0 1.0 0.00 0.39 0.00 89 1014.2
20260831064016 69 160 0.0 1.0 0.00 0.39 0.00 89 1014.1
20260831063516 69 155 0.0 3.0 0.00 0.39 0.00 89 1014.1
20260831063016 69 155 0.0 3.0 0.00 0.39 0.00 89 1014.1
20260831062516 69 136 0.0 2.0 0.00 0.39 0.00 89 1013.9
20260831062016 69 131 0.0 4.0 0.00 0.39 0.00 89 1013.8
20260831061517 69 144 1.0 4.0 0.00 0.39 0.00 89 1013.8
20260831061015 69 149 1.0 3.0 0.00 0.39 0.00 89 1013.7
20260831060517 69 150 0.0 4.0 0.00 0.39 0.00 89 1013.8
20260831060016 69 145 1.0 4.0 0.00 0.39 0.00 89 1013.8
20260831055516 69 150 1.0 4.0 0.00 0.39 0.00 89 1013.7
20260831055016 69 151 2.0 4.0 0.00 0.39 0.00 89 1014.0
20260831054516 69 160 1.0 6.0 0.00 0.39 0.00 89 1014.1
20260831054055 69 165 2.0 6.0 0.00 0.39 0.00 89 1014.1
20260831053516 69 147 2.0 6.0 0.00 0.39 0.00 89 1014.0
20260831053016 69 154 1.0 5.0 0.00 0.39 0.00 88 1014.0
20260831052516 69 137 1.0 4.0 0.00 0.39 0.00 88 1014.0
20260831052017 69 156 1.0 5.0 0.00 0.39 0.00 88 1014.2
20260831051516 69 150 1.0 5.0 0.00 0.39 0.00 88 1014.2
20260831051016 69 146 2.0 7.0 0.00 0.39 0.00 88 1014.1
20260831050515 69 147 3.0 7.0 0.00 0.39 0.00 88 1014.1
20260831050017 69 156 1.0 5.0 0.00 0.39 0.00 87 1014.2
20260831045536 69 154 1.0 6.0 0.00 0.39 0.00 87 1014.2
20260831045036 69 159 2.0 6.0 0.00 0.39 0.00 87 1014.2
20260831044515 69 153 2.0 6.0 0.00 0.39 0.00 87 1014.2
20260831044015 69 159 1.0 5.0 0.00 0.39 0.00 86 1014.2
20260831043515 70 146 3.0 7.0 0.00 0.39 0.00 86 1014.2
20260831043017 70 136 3.0 7.0 0.00 0.39 0.00 86 1014.1
20260831042515 70 148 1.0 5.0 0.00 0.39 0.00 85 1014.1
20260831042016 70 128 1.0 4.0 0.00 0.39 0.00 85 1014.2
20260831041515 70 130 2.0 5.0 0.00 0.39 0.00 85 1014.2
20260831041015 70 159 1.0 5.0 0.00 0.39 0.00 85 1014.2
20260831040534 70 157 1.0 1.0 0.00 0.39 0.00 85 1014.2
20260831040017 70 134 2.0 5.0 0.00 0.39 0.39 85 1014.0
20260831035516 70 139 0.0 6.0 0.00 0.39 0.39 85 1014.1
20260831035016 70 140 2.0 6.0 0.00 0.39 0.39 84 1014.1
20260831034536 70 132 2.0 6.0 0.00 0.39 0.39 84 1014.0
20260831034016 70 152 3.0 6.0 0.00 0.39 0.39 84 1014.1
20260831033516 70 157 2.0 6.0 0.00 0.39 0.39 84 1014.1
20260831033017 70 139 2.0 6.0 0.00 0.39 0.39 84 1014.0
20260831032617 70 124 3.0 6.0 0.00 0.39 0.39 84 1014.0
20260831032016 71 128 3.0 7.0 0.00 0.39 0.39 84 1014.0
20260831031516 71 152 3.0 9.0 0.00 0.39 0.39 84 1014.1
20260831031016 71 157 4.0 9.0 0.00 0.39 0.39 84 1014.2
20260831030516 71 155 2.0 9.0 0.00 0.39 0.39 84 1014.3
20260831030036 71 155 2.0 9.0 0.00 0.39 0.39 84 1014.2
20260831025556 71 179 2.0 6.0 0.00 0.39 0.39 84 1014.0
20260831025016 71 204 1.0 6.0 0.00 0.39 0.39 84 1014.2
20260831024516 71 224 0.0 4.0 0.00 0.39 0.39 85 1014.3
20260831024016 71 308 2.0 4.0 0.00 0.39 0.39 85 1014.1
20260831023516 71 53 2.0 9.0 0.00 0.39 0.39 85 1013.9
20260831023017 71 112 4.0 9.0 0.00 0.39 0.39 84 1013.5
20260831022517 71 121 2.0 5.0 0.00 0.39 0.39 84 1013.7
20260831022036 71 83 1.0 4.0 0.00 0.39 0.39 84 1013.8
20260831021516 71 117 2.0 6.0 0.00 0.39 0.39 84 1013.8
20260831021017 71 134 1.0 6.0 0.00 0.39 0.39 84 1013.8
20260831020517 71 159 3.0 7.0 0.00 0.39 0.39 84 1013.8
20260831020016 71 173 4.0 7.0 0.00 0.39 0.39 84 1013.9
20260831015516 71 170 3.0 7.0 0.00 0.39 0.39 83 1013.8
20260831015016 71 191 2.0 7.0 0.00 0.39 0.39 83 1014.0
20260831014516 72 217 3.0 6.0 0.00 0.39 0.39 83 1014.2
20260831014016 72 255 2.0 6.0 0.00 0.39 0.39 82 1014.2
20260831013516 72 257 1.0 5.0 0.00 0.39 0.39 83 1014.1
20260831013015 72 220 2.0 6.0 0.00 0.39 0.39 83 1014.0
20260831012516 72 202 2.0 6.0 0.00 0.39 0.39 82 1013.9
20260831012016 72 217 2.0 9.0 0.00 0.39 0.39 82 1013.8
20260831011517 72 202 3.0 9.0 0.00 0.39 0.39 82 1013.7
20260831011015 72 210 2.0 5.0 0.00 0.39 0.39 82 1013.7
20260831010537 72 227 2.0 5.0 0.00 0.39 0.39 82 1013.5
20260831010036 72 235 1.0 5.0 0.00 0.39 0.39 81 1013.5
20260831005516 72 232 2.0 5.0 0.00 0.39 0.39 81 1013.4
20260831005037 72 247 1.0 5.0 0.00 0.39 0.39 81 1013.3
20260831004516 72 199 2.0 5.0 0.00 0.39 0.39 81 1013.3
20260831004016 72 198 2.0 5.0 0.00 0.39 0.39 81 1013.2
20260831003516 73 192 2.0 4.0 0.00 0.39 0.39 81 1013.2
20260831003016 73 212 2.0 7.0 0.00 0.39 0.39 80 1013.3
20260831002517 73 230 3.0 7.0 0.00 0.39 0.39 79 1013.4
20260831002015 73 240 0.0 5.0 0.00 0.39 0.39 79 1013.3
20260831001516 73 242 1.0 5.0 0.00 0.39 0.39 79 1013.3
20260831001017 73 223 1.0 6.0 0.00 0.39 0.39 79 1013.3
20260831000516 73 243 1.0 7.0 0.00 0.39 0.39 79 1013.2
20260831000037 74 225 3.0 10.0 0.00 0.39 0.39 79 1013.3
20260830235515 74 238 6.0 14.0 0.00 0.39 0.39 78 1013.4
20260830235015 74 224 6.0 14.0 0.00 0.39 0.39 78 1013.4
20260830234516 74 235 5.0 13.0 0.00 0.39 0.39 78 1013.5
20260830234017 74 236 5.0 13.0 0.00 0.39 0.39 78 1013.5
20260830233535 74 233 5.0 11.0 0.00 0.39 0.39 77 1013.5
20260830233015 74 227 6.0 11.0 0.00 0.39 0.39 77 1013.4
20260830232516 74 227 5.0 11.0 0.00 0.39 0.39 77 1013.4
20260830232015 74 218 6.0 11.0 0.00 0.39 0.39 77 1013.4
20260830231515 75 208 3.0 10.0 0.00 0.39 0.39 77 1013.4
20260830231017 75 225 5.0 10.0 0.00 0.39 0.39 76 1013.5
20260830230557 75 203 4.0 9.0 0.00 0.39 0.39 76 1013.5
20260830230015 75 195 4.0 10.0 0.00 0.39 0.39 76 1013.6
20260830225535 75 222 4.0 10.0 0.00 0.39 0.39 75 1013.6
20260830225016 75 220 3.0 10.0 0.00 0.39 0.39 75 1013.6
20260830224515 75 231 6.0 12.0 0.00 0.39 0.39 74 1013.7
20260830224015 76 218 6.0 12.0 0.00 0.39 0.39 74 1013.7
20260830223515 76 220 6.0 11.0 0.00 0.39 0.39 73 1013.7
20260830223015 76 229 6.0 11.0 0.00 0.39 0.39 73 1013.6
20260830222516 76 236 5.0 14.0 0.00 0.39 0.39 72 1013.9
20260830222015 76 226 8.0 14.0 0.00 0.39 0.39 72 1013.7
20260830221515 77 235 7.0 14.0 0.00 0.39 0.39 71 1013.9
20260830221035 77 244 8.0 15.0 0.00 0.39 0.39 70 1013.9
20260830220516 77 225 8.0 15.0 0.00 0.39 0.39 70 1013.9
20260830220015 77 233 8.0 13.0 0.00 0.39 0.39 70 1013.9
20260830215515 77 225 7.0 13.0 0.00 0.39 0.39 69 1014.0
20260830215035 78 238 9.0 16.0 0.00 0.39 0.39 68 1014.2
20260830214515 78 229 10.0 16.0 0.00 0.39 0.39 67 1014.2
20260830214035 78 236 7.0 16.0 0.00 0.39 0.39 67 1014.2
20260830213515 78 231 9.0 16.0 0.00 0.39 0.39 67 1014.2
20260830213015 78 209 6.0 15.0 0.00 0.39 0.39 66 1014.1
20260830212535 79 223 9.0 16.0 0.00 0.39 0.39 66 1014.2
20260830212015 79 223 8.0 17.0 0.00 0.39 0.39 65 1014.2
20260830211516 79 225 8.0 17.0 0.00 0.39 0.39 65 1014.3
20260830211037 80 238 9.0 15.0 0.00 0.39 0.39 64 1014.3
20260830210515 80 218 8.0 19.0 0.00 0.39 0.39 64 1014.3
20260830210015 80 228 13.0 19.0 0.00 0.39 0.39 63 1014.3
20260830205515 80 245 9.0 16.0 0.00 0.39 0.39 63 1014.3
20260830205016 80 220 9.0 18.0 0.00 0.39 0.39 64 1014.2
20260830204515 80 227 9.0 18.0 0.00 0.39 0.39 63 1014.3
20260830204016 80 227 8.0 14.0 0.00 0.39 0.39 64 1014.2
20260830203515 81 227 7.0 16.0 0.00 0.39 0.39 63 1014.3
20260830203016 81 218 6.0 16.0 0.00 0.39 0.39 64 1014.1
20260830202515 80 225 6.0 12.0 0.00 0.39 0.39 66 1014.0
20260830202015 80 210 5.0 13.0 0.00 0.39 0.39 63 1013.9
20260830201515 80 214 6.0 20.0 0.00 0.39 0.39 62 1013.8
20260830201016 81 223 9.0 20.0 0.00 0.39 0.39 61 1013.8
20260830200516 81 222 11.0 20.0 0.00 0.39 0.39 61 1013.8
20260830200015 81 228 11.0 21.0 0.00 0.39 0.39 61 1013.7
20260830195515 81 200 9.0 21.0 0.00 0.39 0.39 61 1013.8
20260830195035 81 208 12.0 22.0 0.00 0.39 0.39 61 1013.8
20260830194515 81 185 7.0 22.0 0.00 0.39 0.39 62 1013.8
20260830194015 81 228 12.0 23.0 0.00 0.39 0.39 61 1013.7
20260830193535 81 237 14.0 24.0 0.01 0.39 0.39 61 1013.8
20260830193015 81 236 12.0 24.0 0.01 0.39 0.39 61 1013.8
20260830192515 81 216 12.0 20.0 0.01 0.39 0.39 62 1013.8
20260830192015 81 223 11.0 23.0 0.01 0.39 0.39 65 1013.7
20260830191515 81 192 10.0 23.0 0.02 0.39 0.39 64 1013.6
20260830191015 80 228 13.0 23.0 0.03 0.39 0.39 66 1013.6
20260830190515 80 185 11.0 23.0 0.03 0.39 0.39 66 1013.8
20260830190038 80 209 10.0 18.0 0.04 0.39 0.39 67 1013.6
20260830185517 80 201 9.0 21.0 0.04 0.39 0.39 68 1013.5
20260830185017 79 199 10.0 21.0 0.05 0.39 0.39 68 1013.6
20260830184516 79 193 10.0 19.0 0.05 0.39 0.39 68 1013.7
20260830184017 79 193 10.0 19.0 0.06 0.39 0.39 68 1013.6
20260830183537 79 200 8.0 23.0 0.06 0.38 0.38 69 1013.6
20260830183017 79 190 9.0 23.0 0.06 0.38 0.38 71 1013.6
20260830182517 78 177 9.0 21.0 0.06 0.38 0.38 71 1013.6
20260830182017 78 189 9.0 21.0 0.07 0.38 0.38 72 1013.6
20260830181537 78 191 7.0 22.0 0.06 0.37 0.37 73 1013.7
20260830181017 77 185 10.0 22.0 0.06 0.36 0.36 73 1013.7
20260830180518 77 178 9.0 26.0 0.06 0.36 0.36 75 1013.6
20260830180039 77 189 9.0 26.0 0.06 0.35 0.35 74 1013.7
20260830175537 76 211 11.0 23.0 0.06 0.35 0.35 74 1013.7
20260830175017 76 207 6.0 29.0 0.06 0.34 0.34 77 1013.8
20260830174517 76 199 11.0 29.0 0.06 0.34 0.34 76 1013.7
20260830174017 76 183 9.0 20.0 0.06 0.33 0.33 78 1013.7
20260830173537 75 182 8.0 17.0 0.05 0.32 0.32 78 1013.7
20260830173017 75 207 10.0 17.0 0.06 0.32 0.32 77 1013.9
20260830172517 75 193 7.0 18.0 0.07 0.32 0.32 77 1014.0
20260830172017 75 183 9.0 21.0 0.06 0.31 0.31 78 1014.0
20260830171517 74 180 9.0 21.0 0.07 0.31 0.31 80 1014.1
20260830171017 74 199 9.0 21.0 0.06 0.30 0.30 81 1014.1
20260830170516 73 186 7.0 18.0 0.07 0.30 0.30 82 1014.1
20260830170017 73 181 10.0 18.0 0.07 0.29 0.28 82 1014.2
20260830165518 73 182 9.0 19.0 0.07 0.29 0.28 84 1014.2
20260830165017 72 187 10.0 19.0 0.07 0.28 0.28 85 1014.2
20260830164517 72 185 7.0 20.0 0.07 0.28 0.28 87 1014.2
20260830164037 71 181 8.0 20.0 0.07 0.27 0.27 87 1014.2
20260830163518 70 183 9.0 18.0 0.07 0.27 0.27 88 1014.3
20260830163017 70 183 8.0 18.0 0.07 0.26 0.26 89 1014.6
20260830162536 69 182 8.0 18.0 0.07 0.25 0.25 90 1014.7
20260830162017 69 185 7.0 19.0 0.07 0.25 0.25 92 1014.8
20260830161538 69 179 8.0 19.0 0.07 0.24 0.24 92 1014.7
20260830161017 69 194 6.0 12.0 0.08 0.24 0.24 93 1014.8
20260830160518 68 162 6.0 13.0 0.07 0.23 0.23 93 1014.6
20260830160037 67 162 6.0 16.0 0.07 0.22 0.22 94 1014.6
20260830155517 66 161 8.0 16.0 0.07 0.22 0.22 94 1014.7
20260830155018 66 152 8.0 14.0 0.07 0.21 0.21 93 1014.6
20260830154516 66 157 6.0 14.0 0.07 0.21 0.21 94 1014.8
20260830154017 66 171 7.0 16.0 0.07 0.20 0.20 94 1015.0
20260830153538 65 163 8.0 16.0 0.07 0.20 0.20 94 1015.0
20260830153018 65 164 8.0 14.0 0.07 0.19 0.19 94 1015.0
20260830152517 65 162 7.0 16.0 0.06 0.18 0.18 94 1015.1
20260830152037 65 165 6.0 16.0 0.07 0.18 0.18 94 1015.3
20260830151537 65 167 6.0 11.0 0.06 0.17 0.17 94 1015.5
20260830151018 65 160 4.0 10.0 0.05 0.16 0.16 94 1015.7
20260830150517 65 181 4.0 11.0 0.06 0.16 0.16 94 1015.8
20260830150017 65 185 5.0 12.0 0.05 0.15 0.15 94 1015.8
20260830145516 65 172 6.0 14.0 0.06 0.15 0.15 94 1015.8